STARLINK-34830

Last updated on Tue Sep 16 2025 00:02:07 GMT+0000 (Coordinated Universal Time)

1 65405U 25192B 25258.58341435 -.01477252 00000+0 -15570-1 0 9992 2 65405 53.1598 338.1431 0001175 78.7756 139.4241 15.66410591 3588
UTC large
Height (km)
Speed (km/s)
/
Latitude / Longitude
Inclination (degrees)
Orbital Period (minutes)
Azimuth
Elevation
Range (km)
Doppler Factor

Next 0 passes for location: London (51.5072 / 0.1276)

Sorry there are no passes over London.